Regional Weather Roundup
Issued by NWS

Home | Current Version | Previous Version | Text Only | Print | Product List | Glossary Off
Versions: 1 2 3 4 5 6 7 8 9 10 11 12 13 14 15 16 17 18 19 20 21 22 23 24 25 26 27 28 29 30 31 32 33 34 35 36 37 38 39 40 41 42 43 44 45 46 47 48 49 50

000
ASUS45 KCYS 020910
RWRWY

WYOMING REGIONAL WEATHER ROUNDUP
NATIONAL WEATHER SERVICE CHEYENNE WY
300 AM MDT THU APR 02 2015

NOTE:  "FAIR" INDICATES FEW OR NO CLOUDS BELOW 12,000 FEET
WITH NO SIGNIFICANT WEATHER AND/OR OBSTRUCTIONS TO VISIBILITY.

WYZ001-021000-
YELLOWSTONE NATIONAL PARK

CITY           SKY/WX    TMP DP  RH WIND       PRES   REMARKS
LK YELLOWSTONE   N/A     14  11  87 CALM      29.98R
W YELLOWSTONE  NOT AVBL

$$
WYZ002>013-054>058-071-098>099-021000-
NORTHERN WYOMING

CITY           SKY/WX    TMP DP  RH WIND       PRES   REMARKS
JACKSON        FAIR      25  21  86 N12       29.97F WCI  14
CODY           FAIR      34  16  47 W6        29.95F WCI  29
GREYBULL       MOCLDY    33  17  51 SE6       29.97R WCI  28
WORLAND        CLOUDY    34  18  52 S3        29.96S
SHERIDAN       FAIR      29  12  49 W9        29.94R WCI  20
BUFFALO        FAIR      32  10  40 SE3       29.93R
GILLETTE       FAIR      31  12  45 W12       29.93R WCI  22
HULETT         FAIR      34  12  40 SW5       29.91R WCI  30
NEWCASTLE      FAIR      28  12  50 CALM      29.93R

$$
WYZ014>020-022>026-101>103-021000-
CENTRAL WYOMING

CITY           SKY/WX    TMP DP  RH WIND       PRES   REMARKS
BIG PINEY      FAIR      18   1  47 E5        29.95S WCI  11
PINEDALE       FAIR      18  14  86 NW5       29.96R WCI  11
DUBOIS         FAIR      19  10  68 NW9       29.92S WCI   9
LANDER         FAIR      29   7  39 SW3       29.93S
RIVERTON       FAIR      30  11  45 SW7       29.93F WCI  23
CASPER         FAIR      31  17  56 NW5       29.93F WCI  26
DOUGLAS        CLOUDY    33  19  56 CALM      29.94F

$$
WYZ021-027>030-104>119-021000-
SOUTHERN WYOMING

CITY           SKY/WX    TMP DP  RH WIND       PRES   REMARKS
EVANSTON       CLOUDY    29   7  39 N5        29.96F WCI  24
FORT BRIDGER   CLOUDY    30   6  36 W3        29.99F
ROCK SPRINGS   FAIR      27   4  37 SW7       29.96S WCI  19
DIXON          FAIR      32  11  42 CALM      29.96F
RAWLINS        FAIR      31   6  35 NW5       29.94S WCI  26
SARATOGA       FAIR      32   5  32 SW9       29.94F WCI  24
LARAMIE        FAIR      27   7  42 S5        29.92F WCI  22
CHEYENNE       FAIR      29  22  75 W5        29.94S WCI  24
TORRINGTON     FAIR      30  22  72 NW5       29.93S WCI  25
PINE BLUFFS    FAIR      23  21  93 SW6       29.96R WCI  16

$$



USA.gov is the U.S. government's official web portal to all federal, state and local government web resources and services.